Location: Palomar Mountain Lodge
(33.3110°N, 116.8495°W)
Time: 13:28:35
(UTC-08:00)

Cosmos 1386 Rocket - Pass Details

Date: 12 July 2018
Orbit: 929 x 1007 km, 83.0° (Epoch: 17 November)

Event Time Altitude Azimuth Distance (km) Brightness Sun altitude
Rises 20:14:16 0° 354° (N) 3,581 8.0 -3.7°
Reaches altitude 10° 20:16:45 10° 356° (N) 2,636 7.3 -4.1°
Maximum altitude 20:22:46 84° 84° (E) 943 4.5 -5.2°
Drops below altitude 10° 20:28:49 10° 173° (S) 2,651 6.4 -6.3°
Sets 20:31:18 0° 174° (S) 3,603 7.1 -6.8°
